Weather Roundup
Issued by NWS Corpus Christi, TX

Home | Current Version | Previous Version | Text Only | Print | Product List | Glossary On
Versions: 1 2 3 4 5 6 7 8 9 10 11 12 13 14 15 16 17 18 19 20 21 22 23 24 25 26 27 28 29 30 31 32 33 34 35 36 37 38 39 40 41 42 43 44 45 46 47 48 49 50
000
ASUS44 KCRP 301710
HRRCRP

SOUTH TEXAS REGIONAL WEATHER ROUNDUP
NATIONAL WEATHER SERVICE CORPUS CHRISTI TX
1200 PM CDT FRI SEP 30 2016


TXZ229>244-301800-
...CORPUS CHRISTI AREA OBSERVATIONS...

CITY           SKY/WX    TMP DP  RH WIND       PRES   REMARKS
CORPUS CHRISTI MOSUNNY   81  56  42 NE10      30.17F
NAS CORPUS CHR MOSUNNY   81  61  50 N12       30.16F
ROCKPORT       SUNNY     81  51  35 NE10G18   30.16F
KINGSVILLE NAS MOSUNNY   82  56  40 NE9       30.16F
ALICE          SUNNY     80  51  36 E9        30.17F
FALFURRIAS     SUNNY     82  50  33 N8        30.16F
$$

...VICTORIA AREA OBSERVATIONS...

CITY           SKY/WX    TMP DP  RH WIND       PRES   REMARKS
VICTORIA       SUNNY     78  52  40 N9        30.19F
BEEVILLE       FAIR      78  55  44 NE9       30.19S
PLEASANTON     SUNNY     76  51  40 CALM      30.22F
SAN ANTONIO    MOSUNNY   75  51  43 VRB3      30.22F
$$

...LAREDO AREA OBSERVATIONS...

CITY           SKY/WX    TMP DP  RH WIND       PRES   REMARKS
LAREDO         SUNNY     79  54  41 NE6       30.20F
COTULLA        SUNNY     81  49  32 NE7       30.21F
DEL RIO        SUNNY     73  55  53 S12       30.23F
MCALLEN        MOSUNNY   87  67  51 N8        30.15F HX  90
HEBBRONVILLE   SUNNY     78  48  34 N8        30.19F
$$

...OTHER TEXAS OBSERVATIONS...

CITY           SKY/WX    TMP DP  RH WIND       PRES   REMARKS
BROWNSVILLE    MOSUNNY   88  69  53 NE12      30.12S HX  92
HOUSTON        MOSUNNY   77  53  43 E9        30.19S
COL. STATION   SUNNY     76  53  44 MISG      30.20F
AUSTIN         MOSUNNY   74  51  44 E5        30.21F
WACO           SUNNY     75  52  44 E6        30.22F
FORT WORTH     MOSUNNY   75  49  39 VRB5      30.21F
WICHITA FALLS  SUNNY     70  49  47 VRB6      30.25F
LUBBOCK        CLOUDY    70  47  43 S12       30.27F
EL PASO        PTSUNNY   65  58  78 S7        30.28F
$$

...MARINE OBSERVATIONS...

STATION/POSITION TIME  SKY/WX   TEMP    WIND        PRES    VSBY  WAVE   SWELL
                                AIR SEA DIR/SP/G                  HT/PER HT/PER
                 (UTC)          (F)     (DEG/KT/KT) (MB)    (MI)  (FT/S) (FT/S)
PORT ARANSAS     1600            74 82  360/ 12/ 14 1021.7R
BUOY 90 E PORT A 1650            78 86   30/  8/ 12 1020.6S         3/ 6   2/ 6
BUOY 45 SE BAFFI 1650            81 84   40/  8/ 10 1019.9S         3/ 6   3/ 6
BUOY 200 E PT IS 1650            82 86   30/ 14/ 16 1017.7F         4/ 6
BUOY 15 E GALVES 1650            74 84   50/ 10/ 14 1021.6R         3/ 4   2/ 5
$$



USA.gov is the U.S. government's official web portal to all federal, state and local government web resources and services.